Location: The Saddle
(36.8333°N, 80.3417°W)
Time: 03:53:06
(UTC-04:00)

Vanguard 3 - Pass Details

Date: 25 February 2024
Orbit: 510 x 3234 km, 33.3° (Epoch: 24 April)

Event Time Altitude Azimuth Distance (km) Brightness Sun altitude
Rises 22:31:36 0° 259° (W) 7,067 12.3 -50.6°
Reaches altitude 10° 22:36:13 10° 259° (W) 6,143 11.8 -51.3°
Enters shadow 22:50:46 57° 248° (WSW) 3,479 10.1 -53.5°
